When you browse on this site, cookies collect data to enhance your experience and personalize the content and advertising you see.
Visit our Privacy Policy to learn more. By continuing to use the site, you agree to this use of cookies and data.
  • In Lithuania
  • List of Countries
  • For 7 days
  • Water Temperature
  • Satellite Maps
  • Weather Map
  • Weather Widgets
  • user-avatar
    Login

    Hourly Weather Disa

    Today, 10 December, Monday

    Time Temperature Precipitation Wind Pressure Humidity
    00:00 +21°C° 0 mm 1 mps 748 mmHg 44%
    01:00 +21°C° 0 mm 1 mps 748 mmHg 44%
    02:00 +20°C° 0 mm 1 mps 748 mmHg 45%
    03:00 +20°C° 0 mm 1 mps 748 mmHg 45%
    04:00 +20°C° 0 mm 1 mps 748 mmHg 46%
    05:00 +20°C° 0 mm 1 mps 748 mmHg 46%
    06:00 +21°C° 0 mm 1 mps 748 mmHg 44%
    07:00 +21°C° 0 mm 1 mps 749 mmHg 43%
    08:00 +22°C° 0 mm 1 mps 749 mmHg 41%
    09:00 +24°C° 0 mm 1 mps 749 mmHg 39%
    10:00 +26°C° 0 mm 1 mps 749 mmHg 37%
    11:00 +28°C° 0 mm 1 mps 749 mmHg 35%
    12:00 +29°C° 0 mm 1 mps 749 mmHg 33%
    13:00 +29°C° 0 mm 1 mps 748 mmHg 31%
    14:00 +30°C° 0 mm 2 mps 747 mmHg 29%
    15:00 +29°C° 0 mm 1 mps 747 mmHg 32%
    16:00 +28°C° 0 mm 1 mps 747 mmHg 34%
    17:00 +28°C° 0 mm 1 mps 747 mmHg 37%
    18:00 +26°C° 0 mm 1 mps 748 mmHg 41%
    19:00 +25°C° 0 mm 1 mps 748 mmHg 44%
    20:00 +24°C° 0 mm 1 mps 749 mmHg 48%
    21:00 +23°C° 0 mm 1 mps 749 mmHg 51%
    22:00 +23°C° 0 mm 1 mps 749 mmHg 54%
    23:00 +20°C° 0 mm 0 mps 749 mmHg 57%

    Tomorrow, 11 December, Tuesday

    Time Temperature Precipitation Wind Pressure Humidity
    00:00 +22°C° 0 mm 1 mps 749 mmHg 57%
    01:00 +22°C° 0 mm 1 mps 749 mmHg 56%
    02:00 +21°C° 0 mm 1 mps 749 mmHg 56%
    03:00 +21°C° 0 mm 1 mps 749 mmHg 56%
    04:00 +21°C° 0 mm 1 mps 749 mmHg 55%
    05:00 +21°C° 0 mm 1 mps 749 mmHg 55%
    06:00 +21°C° 0 mm 1 mps 749 mmHg 52%
    07:00 +22°C° 0 mm 1 mps 750 mmHg 50%
    08:00 +23°C° 0 mm 1 mps 750 mmHg 48%
    09:00 +25°C° 0 mm 1 mps 751 mmHg 42%
    10:00 +27°C° 0 mm 1 mps 751 mmHg 35%
    11:00 +29°C° 0 mm 1 mps 751 mmHg 29%
    12:00 +29°C° 0 mm 1 mps 750 mmHg 27%
    13:00 +30°C° 0 mm 1 mps 750 mmHg 25%
    14:00 +30°C° 0 mm 1 mps 749 mmHg 22%
    15:00 +30°C° 0 mm 1 mps 749 mmHg 24%
    16:00 +29°C° 0 mm 2 mps 749 mmHg 26%
    17:00 +28°C° 0 mm 2 mps 748 mmHg 28%
    18:00 +27°C° 0 mm 2 mps 749 mmHg 29%
    19:00 +25°C° 0 mm 2 mps 749 mmHg 30%
    20:00 +24°C° 0 mm 2 mps 750 mmHg 31%
    21:00 +23°C° 0 mm 2 mps 750 mmHg 31%
    22:00 +22°C° 0 mm 3 mps 750 mmHg 31%
    23:00 +22°C° 0 mm 3 mps 750 mmHg 31%

    Day after tomorrow, 12 December, Wednesday

    Time Temperature Precipitation Wind Pressure Humidity
    00:00 +21°C° 0 mm 3 mps 750 mmHg 30%
    01:00 +21°C° 0 mm 3 mps 750 mmHg 30%
    02:00 +20°C° 0 mm 3 mps 749 mmHg 30%
    03:00 +20°C° 0 mm 3 mps 749 mmHg 31%
    04:00 +19°C° 0 mm 3 mps 749 mmHg 32%
    05:00 +19°C° 0 mm 3 mps 749 mmHg 32%
    06:00 +19°C° 0 mm 2 mps 750 mmHg 33%
    07:00 +20°C° 0 mm 2 mps 751 mmHg 34%
    08:00 +20°C° 0 mm 2 mps 752 mmHg 34%
    09:00 +24°C° 0 mm 2 mps 752 mmHg 30%
    10:00 +26°C° 0 mm 3 mps 752 mmHg 26%
    11:00 +29°C° 0 mm 3 mps 752 mmHg 22%
    12:00 +29°C° 0 mm 3 mps 751 mmHg 21%
    13:00 +30°C° 0 mm 2 mps 751 mmHg 20%
    14:00 +30°C° 0 mm 2 mps 750 mmHg 19%
    15:00 +29°C° 0 mm 2 mps 750 mmHg 21%
    16:00 +28°C° 0 mm 2 mps 750 mmHg 24%
    17:00 +27°C° 0 mm 2 mps 750 mmHg 26%
    18:00 +26°C° 0 mm 2 mps 750 mmHg 27%
    19:00 +25°C° 0 mm 3 mps 751 mmHg 28%
    20:00 +22°C° 0 mm 3 mps 752 mmHg 29%
    21:00 +22°C° 0 mm 3 mps 752 mmHg 30%
    22:00 +21°C° 0 mm 3 mps 752 mmHg 31%
    23:00 +21°C° 0 mm 4 mps 752 mmHg 32%

    13 December, Thursday

    Time Temperature Precipitation Wind Pressure Humidity
    00:00 +20°C° 0 mm 4 mps 752 mmHg 33%
    01:00 +20°C° 0 mm 3 mps 752 mmHg 34%
    02:00 +19°C° 0 mm 3 mps 751 mmHg 34%
    03:00 +19°C° 0 mm 3 mps 751 mmHg 35%
    04:00 +19°C° 0 mm 3 mps 751 mmHg 35%
    05:00 +18°C° 0 mm 3 mps 751 mmHg 35%
    06:00 +19°C° 0 mm 3 mps 752 mmHg 35%
    07:00 +19°C° 0 mm 3 mps 753 mmHg 35%
    08:00 +20°C° 0 mm 3 mps 753 mmHg 36%
    09:00 +22°C° 0 mm 3 mps 753 mmHg 31%
    10:00 +26°C° 0 mm 3 mps 753 mmHg 27%
    11:00 +28°C° 0 mm 3 mps 754 mmHg 23%
    12:00 +28°C° 0 mm 3 mps 753 mmHg 22%
    13:00 +29°C° 0 mm 3 mps 752 mmHg 21%
    14:00 +30°C° 0 mm 4 mps 751 mmHg 21%
    15:00 +28°C° 0 mm 4 mps 751 mmHg 23%
    16:00 +27°C° 0 mm 4 mps 751 mmHg 26%
    17:00 +26°C° 0 mm 4 mps 751 mmHg 29%
    18:00 +25°C° 0 mm 4 mps 752 mmHg 30%
    19:00 +22°C° 0 mm 4 mps 752 mmHg 31%
    20:00 +21°C° 0 mm 4 mps 753 mmHg 32%
    21:00 +20°C° 0 mm 4 mps 753 mmHg 32%
    22:00 +20°C° 0 mm 4 mps 753 mmHg 32%
    23:00 +19°C° 0 mm 4 mps 753 mmHg 33%

    14 December, Friday

    Time Temperature Precipitation Wind Pressure Humidity
    00:00 +19°C° 0 mm 4 mps 753 mmHg 33%
    01:00 +18°C° 0 mm 4 mps 753 mmHg 33%
    02:00 +17°C° 0 mm 4 mps 753 mmHg 33%
    03:00 +17°C° 0 mm 4 mps 753 mmHg 33%
    04:00 +17°C° 0 mm 4 mps 753 mmHg 33%
    05:00 +15°C° 0 mm 4 mps 753 mmHg 34%
    06:00 +17°C° 0 mm 4 mps 753 mmHg 34%
    07:00 +17°C° 0 mm 4 mps 754 mmHg 35%
    08:00 +18°C° 0 mm 4 mps 754 mmHg 35%
    09:00 +20°C° 0 mm 4 mps 754 mmHg 31%
    10:00 +23°C° 0 mm 4 mps 754 mmHg 26%
    11:00 +27°C° 0 mm 4 mps 754 mmHg 22%
    12:00 +27°C° 0 mm 4 mps 754 mmHg 21%
    13:00 +28°C° 0 mm 3 mps 753 mmHg 19%
    14:00 +28°C° 0 mm 3 mps 752 mmHg 18%
    15:00 +27°C° 0 mm 3 mps 752 mmHg 20%
    16:00 +26°C° 0 mm 3 mps 752 mmHg 22%
    17:00 +25°C° 0 mm 3 mps 752 mmHg 24%
    18:00 +24°C° 0 mm 3 mps 753 mmHg 24%
    19:00 +21°C° 0 mm 4 mps 753 mmHg 24%
    20:00 +20°C° 0 mm 4 mps 754 mmHg 25%
    21:00 +19°C° 0 mm 4 mps 754 mmHg 25%
    22:00 +19°C° 0 mm 4 mps 754 mmHg 26%
    23:00 +18°C° 0 mm 4 mps 754 mmHg 26%

    15 December, Saturday

    Time Temperature Precipitation Wind Pressure Humidity
    00:00 +18°C° 0 mm 4 mps 754 mmHg 27%
    01:00 +17°C° 0 mm 4 mps 754 mmHg 28%
    02:00 +17°C° 0 mm 4 mps 754 mmHg 29%
    03:00 +17°C° 0 mm 4 mps 754 mmHg 30%
    04:00 +15°C° 0 mm 4 mps 754 mmHg 31%
    05:00 +15°C° 0 mm 4 mps 754 mmHg 33%
    06:00 +15°C° 0 mm 4 mps 754 mmHg 33%
    07:00 +17°C° 0 mm 4 mps 755 mmHg 34%
    08:00 +17°C° 0 mm 3 mps 755 mmHg 35%
    09:00 +20°C° 0 mm 4 mps 755 mmHg 31%
    10:00 +22°C° 0 mm 4 mps 755 mmHg 27%
    11:00 +26°C° 0 mm 4 mps 755 mmHg 23%
    12:00 +27°C° 0 mm 4 mps 755 mmHg 21%
    13:00 +27°C° 0 mm 3 mps 754 mmHg 20%
    14:00 +28°C° 0 mm 3 mps 753 mmHg 18%
    15:00 +27°C° 0 mm 3 mps 753 mmHg 20%
    16:00 +26°C° 0 mm 2 mps 753 mmHg 23%
    17:00 +25°C° 0 mm 2 mps 753 mmHg 25%
    18:00 +24°C° 0 mm 3 mps 753 mmHg 25%
    19:00 +21°C° 0 mm 3 mps 754 mmHg 26%
    20:00 +20°C° 0 mm 3 mps 754 mmHg 27%
    21:00 +19°C° 0 mm 3 mps 754 mmHg 28%
    22:00 +18°C° 0 mm 3 mps 754 mmHg 29%
    23:00 +18°C° 0 mm 3 mps 754 mmHg 31%
    Show more